カタログに戻る

CZ-4C R/B

運用中LEO
NORAD 47696·ROCKET BODY·🇨🇳 China

打ち上げ Feb 24, 2021 から Jiuquan Satellite Launch Center

Loading…

次のパス (今後24時間)

TLE

最新Source: Space-Track

元期: Sep 14, 2026, 14:15 UTC

1 47696U 21014F   26257.59432839 -.00000055  00000-0  34472-4 0  9990
2 47696  63.4510 123.0689 0306052   1.3162 358.8613 13.68601081277588

AllMySatでCZ-4C R/Bをリアルタイム追跡

Download on the App Store